Kinloss, United Kingdom

1:22 AM BST on July 28, 2017 (GMT +0100)
Kinloss Air Base

Weather History for EGQK - October, 2012

Change the Weather History Date:

Friday, October 12, 2012

  Actual Average Record
Temperature  
Mean Temperature 50 °F -  
Max Temperature 51 °F 52 °F 62 °F (2001)
Min Temperature 48 °F 40 °F 36 °F (2016)
Degree Days  
Heating Degree Days 16    
Moisture  
Dew Point 48 °F    
Average Humidity 91    
Maximum Humidity 100    
Minimum Humidity 81    
Precipitation  
Precipitation 0.43 in 0.08 in - ()
Sea Level Pressure  
Sea Level Pressure 29.48 in    
Wind  
Wind Speed 9 mph ()    
Max Wind Speed 13 mph    
Max Gust Speed -    
Visibility 5.8 miles    
Events Rain    
Averages and records for this station are not official NWS values.
T = Trace of Precipitation, MM = Missing Value Source: Averaged Metar Reports

Daily Weather History Graph

Daily Weather History Graph

Search for Another Location

Airport or City:

Trip Planner

Search our weather history database for the weather conditions in past years. The results will help you decide how hot, cold, wet, or windy it might be!

Date:

Astronomy

Oct. 12, 2012 Rise Set
Actual Time 7:42 AM BST 6:17 PM BST
Civil Twilight 7:03 AM BST 6:56 PM BST
Nautical Twilight 6:18 AM BST 7:41 PM BST
Astronomical Twilight 5:32 AM BST 8:26 PM BST
Moon 3:32 AM BST (10/12) 4:48 PM BST (10/12)
Length of Visible Light 11h 52m
Length of Day
10h 34m
Waning Crescent, 12% of the Moon is Illuminated
Oct 12
Waning Crescent
Oct 15
New
Oct 22
First Quarter
Oct 29
Full
Nov 7
Last Quarter

Hourly Weather History & Observations

Time (BST) Temp. Dew Point Humidity Pressure Visibility Wind Dir Wind Speed Gust Speed Precip Events Conditions
12:50 AM 50 °F 48 °F 92% 29.55 in 6 mi NE 6.9 mph - - Rain Rain
12:50 AM 50.0 °F 48.2 °F 94% 29.53 in 6.2 mi NE 6.9 mph - N/A   Overcast
1:50 AM 50.0 °F 50.0 °F 100% 29.53 in 6.2 mi East 11.5 mph - N/A Rain Light Rain
2:50 AM 51.8 °F 48.2 °F 88% 29.50 in 6.2 mi East 11.5 mph - N/A Rain Light Rain Showers
3:50 AM 52 °F 48 °F 81% 29.52 in 15 mi East 12.7 mph - - Rain Light Rain Showers
3:50 AM 51.8 °F 48.2 °F 88% 29.50 in 6.2 mi East 12.7 mph - N/A Rain Light Rain Showers
4:50 AM 51.8 °F 48.2 °F 88% 29.50 in 6.2 mi East 12.7 mph - N/A   Mostly Cloudy
5:50 AM 50.0 °F 48.2 °F 94% 29.50 in 6.2 mi East 8.1 mph - N/A Rain Light Rain Showers
6:50 AM 51 °F 48 °F 84% 29.51 in 9 mi East 8.1 mph - - Rain Light Rain Showers
6:50 AM 51.8 °F 48.2 °F 88% 29.50 in 6.2 mi East 8.1 mph - N/A Rain Light Rain Showers
7:50 AM 50.0 °F 48.2 °F 94% 29.50 in 6.2 mi ENE 9.2 mph - N/A Rain Rain
8:50 AM 50.0 °F 48.2 °F 94% 29.50 in 6.2 mi ENE 10.4 mph - N/A Rain Light Rain
9:50 AM 51 °F 48 °F 84% 29.51 in 10 mi ENE 9.2 mph - - Rain Light Rain
9:50 AM 51.8 °F 48.2 °F 88% 29.50 in 6.2 mi ENE 9.2 mph - N/A Rain Light Rain
10:50 AM 51.8 °F 48.2 °F 88% 29.47 in 6.2 mi East 12.7 mph - N/A Rain Light Rain Showers
11:50 AM 51.8 °F 48.2 °F 88% 29.47 in 6.2 mi East 12.7 mph - N/A Rain Light Rain
12:50 PM 51 °F 48 °F 87% 29.49 in 7 mi East 11.5 mph - - Rain Light Rain
12:50 PM 51.8 °F 48.2 °F 88% 29.47 in 6.2 mi East 11.5 mph - N/A Rain Light Rain
1:50 PM 51.8 °F 48.2 °F 88% 29.47 in 6.2 mi East 11.5 mph - N/A Rain Rain
2:50 PM 50.0 °F 48.2 °F 94% 29.47 in 3.7 mi ENE 10.4 mph - N/A Rain Rain
3:50 PM 50 °F 48 °F 91% 29.47 in 5 mi ENE 12.7 mph - - Rain Rain
3:50 PM 50.0 °F 48.2 °F 94% 29.44 in 5.0 mi ENE 12.7 mph - N/A Rain Rain
4:50 PM 50.0 °F 48.2 °F 94% 29.44 in - ENE 11.5 mph - N/A Rain Rain
5:50 PM 50.0 °F 48.2 °F 94% 29.47 in 3.7 mi ENE 8.1 mph - N/A Rain Rain
6:50 PM 49 °F 48 °F 95% 29.47 in 3 mi ENE 6.9 mph - - Rain Rain
6:50 PM 50.0 °F 48.2 °F 94% 29.47 in 2.8 mi ENE 6.9 mph - N/A Rain Rain
7:50 PM 50.0 °F 48.2 °F 94% 29.44 in 2.5 mi East 8.1 mph - N/A Rain Rain
8:50 PM 50.0 °F 48.2 °F 94% 29.42 in 3.1 mi ESE 3.5 mph - N/A Rain Rain
9:50 PM 49 °F 48 °F 96% 29.41 in 3 mi SE 4.6 mph - - Rain Light Drizzle
9:50 PM 50.0 °F 48.2 °F 94% 29.39 in - SE 4.6 mph - N/A   Light Drizzle
10:50 PM 48.2 °F 46.4 °F 93% 29.42 in 2.2 mi SW 9.2 mph - N/A   Drizzle
11:50 PM 48.2 °F 46.4 °F 93% 29.42 in 5.0 mi SE 4.6 mph - N/A   Light Drizzle